Regional Weather Roundup
Issued by NWS Cleveland, OH

Home | Current Version | Previous Version | Graphics & Text | Print | Product List | Glossary On
Versions: 1 2 3 4 5 6 7 8 9 10 11 12 13 14 15 16 17 18 19 20 21 22 23 24 25 26 27 28 29 30 31 32 33 34 35 36 37 38 39 40 41 42 43 44 45 46 47 48 49 50
477
ASUS41 KCLE 242302
RWRCLE
OHIO REGIONAL WEATHER ROUNDUP
NATIONAL WEATHER SERVICE CLEVELAND, OH
700 PM EDT FRI MAR 24 2017

NOTE: "FAIR" INDICATES FEW OR NO CLOUDS BELOW 12,000 FEET WITH NO
SIGNIFICANT WEATHER AND/OR OBSTRUCTIONS TO VISIBILITY.

OHZ001>008-015>018-024>027-034-035-043-044-250000-
   NORTHWEST OHIO

CITY           SKY/WX    TMP DP  RH WIND       PRES   REMARKS
DEFIANCE       CLEAR     72  53  51 SW16G28   29.98R
FINDLAY        CLEAR     73  53  49 SW24G32   30.00S
TOLEDO EXPRESS PTCLDY    74  53  48 SW20      29.97R
TOLEDO EXEC    PTCLDY    74  56  53 W15       29.98R
LIMA           MOCLDY    72  54  53 SW14      30.03S
$$

OHZ009>014-019>023-028>033-038-089-250000-
   NORTHEAST OHIO

CITY           SKY/WX    TMP DP  RH WIND       PRES   REMARKS
CLE-HOPKINS    PTCLDY    73  52  47 SW16G29   30.03R
CLE-LAKEFRONT  CLEAR     72  52  49 SW21G36   29.99R
CUY CO. ARPT   MOCLDY    73  54  49 W18G30    29.99F
LORAIN-ELYRIA  CLEAR     70  53  54 SW18      30.01R
ASHTABULA      CLEAR     69  50  50 W13       30.00R
AKRON-CANTON   PTCLDY    70  51  51 SW18G25   30.05R
WOOSTER        CLEAR     68  52  56 SW16G26   30.05R
MANSFIELD      CLOUDY    70  52  52 SW18G28   30.06R
YOUNGSTOWN     MOCLDY    69  50  50 SW15G22   30.02S
$$

OHZ042-051>053-060>062-070>072-077>081-250000-
  SOUTHWEST OHIO

CITY           SKY/WX    TMP DP  RH WIND       PRES   REMARKS
CINC-COVINGTON PTCLDY    72  53  51 SW14G25   30.10S
CINC-LUNKEN    PTCLDY    73  55  53 SW12      30.09F
HAMILTON       CLEAR     74  54  49 SW9G21    30.09S
DAYTON         MOCLDY    71  52  50 S14G24    30.07S
WRIGHT-PAT AFB PTCLDY    73  52  47 SW20G26   30.07R
DAYTON GENERAL CLOUDY    72  53  51 S16G23    30.08R
WILMINGTON     CLOUDY    70  54  56 SW10      30.10R
$$

OHZ036-037-039>041-045>050-054>059-063>069-073>076-082>088-250000-
  CENTRAL AND SOUTHEAST OHIO

CITY           SKY/WX    TMP DP  RH WIND       PRES   REMARKS
COLUMBUS       CLOUDY    72  53  51 SW14G26   30.09R
OSU AIRPORT    CLOUDY    71  54  54 SW16G23   30.08R
BOLTON FIELD   CLEAR     72  55  56 SW17      30.09S
RICKENBACK AFB CLOUDY    70  54  56 SW15      30.08S
NEWARK         CLOUDY    71  52  50 SW10      30.08R
MARION         CLOUDY    72  51  47 SW21G28   30.06R
LANCASTER      CLOUDY    72  52  49 SW14G21   30.10S
ZANESVILLE     CLOUDY    73  51  46 SW14G22   30.09R
NEW PHILLY     NOT AVBL
$$




USA.gov is the U.S. government's official web portal to all federal, state and local government web resources and services.